Lid_Strength_Index
2 1 1 -0 -1 -1 -2 -2 -2 -2 -1 -1 -1 -1 -1 -1 -0 2 3 2 5 11 8 7 7 8 9 11 15 11 10 11 12 15 17 20 23 21 24 22 20 19 20 22 23 25 25 18 18 19 20 20 22 25
1 1 0 -1 -1 -2 -2 -2 -2 -2 -1 -1 -1 -1 -1 -1 -0 1 4 2 3 8 9 6 6 6 7 7 11 10 10 11 12 15 17 19 23 22 24 24 19 21 18 20 19 19 18 20 18 21 24 21 24 21
2 1 -0 -1 -2 -2 -2 -2 -2 -1 -1 -1 -1 -1 -1 -1 -0 0 3 4 5 8 8 8 9 7 6 6 6 12 11 9 11 12 14 16 20 17 22 21 19 18 16 18 18 17 18 19 19 20 20 17 17 16
1 1 -1 -2 -2 -2 -2 -2 -1 -1 -1 -1 -1 -1 -1 -1 -0 0 3 3 6 9 13 14 6 9 7 7 6 6 8 9 10 12 14 16 18 14 17 17 17 16 15 16 17 16 17 16 15 15 17 17 17 18
1 0 -1 -2 -1 -2 -2 -1 -1 -1 -1 -1 -1 -1 -1 -0 -0 1 3 3 5 8 15 15 9 10 9 8 7 7 7 10 12 14 16 17 15 15 17 17 18 14 15 17 17 14 14 13 14 14 16 16 17 18
1 -0 -1 -2 -2 -2 -2 -1 -1 -1 -1 -1 -1 -1 -1 0 1 4 7 5 5 7 14 16 14 15 13 10 9 7 7 8 8 12 14 13 11 14 21 21 14 13 13 13 14 13 14 15 14 15 16 16 16 17
0 -0 -1 -1 -1 -1 -1 -1 -1 -1 -1 -1 -1 -1 -0 0 3 6 7 6 3 8 16 19 17 12 10 13 12 10 8 10 10 11 12 13 13 14 19 20 14 14 14 14 14 15 17 16 17 17 17 18 19 21
0 -0 -1 -1 -1 -1 -1 -1 -1 -1 -1 -1 -1 -1 -1 1 3 6 4 2 6 11 16 21 18 17 13 16 15 14 15 13 14 14 14 16 13 16 19 15 14 14 16 18 18 18 16 17 18 19 19 20 21 21
0 -0 -1 -1 -1 -1 -1 -1 -1 -1 -1 -1 -1 -0 3 5 7 6 3 4 8 11 20 25 22 23 13 16 14 14 16 17 18 17 18 17 20 17 17 16 15 15 16 17 20 21 21 20 20 21 21 22 21 21
0 -1 -1 -1 -1 -1 -1 -1 -1 -1 -1 -0 2 8 12 7 2 3 7 8 9 17 20 20 23 19 15 18 20 20 18 22 21 20 20 20 20 18 16 17 17 17 17 19 21 22 25 24 21 22 21 22 21 21
-0 -1 -1 -0 -1 -1 -1 -1 -1 -1 0 5 11 10 6 3 7 9 13 13 15 19 23 20 22 16 16 20 22 20 23 26 22 21 20 24 23 17 19 19 22 22 21 20 23 21 20 20 19 21 24 23 24 23
-0 -1 -1 -0 -1 -1 -1 -1 -1 3 4 6 6 5 6 8 10 13 17 16 17 19 21 20 19 18 19 18 20 22 25 25 24 25 22 25 18 18 20 20 22 24 25 23 27 22 22 19 19 20 23 24 24 25
-0 -0 0 -0 -1 -1 -1 -1 -1 -0 1 4 6 9 10 13 14 16 17 21 20 20 18 17 20 18 20 18 25 24 25 26 27 25 24 20 17 18 20 22 22 25 25 24 24 25 24 24 24 23 23 28 27 28
-0 -0 -0 -1 -1 -1 -1 -1 -0 1 4 9 11 13 13 18 20 22 22 22 19 20 21 21 21 20 24 21 26 25 27 28 29 28 23 20 19 19 20 25 25 21 22 24 25 25 25 23 25 28 28 28 27 26
0 1 -0 -1 -1 -1 -1 -0 2 6 8 11 11 13 20 23 25 20 23 20 19 19 20 21 20 17 25 24 26 28 26 28 26 23 21 19 23 25 25 26 26 26 25 24 24 23 23 24 23 23 26 28 29 27
0 2 1 -0 -0 -1 1 3 6 8 13 14 18 21 25 22 22 23 21 16 17 19 21 19 24 23 22 25 25 26 25 25 21 24 21 24 23 26 28 28 27 27 26 25 25 24 23 23 22 21 24 24 22 22
2 5 1 0 1 2 2 8 11 15 17 20 21 23 21 22 20 21 17 16 18 19 20 22 22 24 22 24 25 28 22 20 21 22 26 27 24 24 27 29 28 28 26 28 27 27 26 28 28 24 20 19 23 24
4 3 1 1 3 4 10 14 17 19 20 22 20 18 19 20 19 18 18 19 18 21 21 19 20 25 26 24 25 22 22 25 27 25 24 26 27 28 28 25 27 29 27 26 25 24 24 24 22 18 19 22 25 25
2 2 2 2 5 9 12 15 16 20 21 22 22 21 19 19 17 17 19 18 21 20 18 21 21 23 23 24 22 25 28 26 21 21 24 26 27 27 25 28 29 27 26 25 25 24 25 25 23 25 26 28 26 27
1 1 3 4 4 9 12 14 16 17 20 18 19 20 21 20 18 18 19 19 19 19 18 20 20 20 19 21 21 22 22 23 22 23 22 21 25 27 25 25 24 27 27 28 29 27 27 24 27 28 29 28 27 24
4 3 4 9 12 13 14 17 17 18 18 18 17 16 18 17 18 18 18 20 18 19 18 20 22 24 28 29 29 28 25 23 21 19 19 20 23 26 26 27 30 31 26 28 26 25 28 27 26 29 29 28 30 30
8 4 12 10 13 17 16 16 16 17 16 17 16 16 17 17 18 19 23 18 17 15 18 20 22 24 24 22 24 28 26 26 30 27 25 23 19 21 23 27 26 25 29 27 28 26 27 28 30 31 31 30 31 31
4 9 16 15 14 16 19 19 16 18 16 17 18 18 19 19 20 21 17 18 17 20 24 24 25 29 25 30 31 30 32 27 25 27 27 28 30 32 30 30 31 27 26 27 32 30 29 29 30 30 31 30 28 25
8 13 17 17 19 17 23 21 20 19 20 21 22 23 23 23 23 21 19 18 17 24 25 23 26 22 25 25 24 26 28 30 29 30 33 28 26 27 33 31 33 33 30 30 31 31 32 30 29 29 25 24 28 25
11 14 17 20 24 21 20 19 19 19 20 21 21 22 23 26 21 21 19 17 21 24 25 29 27 27 22 28 30 30 34 30 26 24 29 31 31 30 29 32 32 32 34 29 29 30 29 31 27 23 26 28 29 30
14 18 18 21 23 20 20 20 20 20 21 22 25 28 30 25 22 21 22 22 24 24 26 24 22 26 27 26 24 26 26 36 31 24 28 32 29 26 27 26 28 25 34 32 30 28 28 26 27 28 28 31 31 35
14 17 25 30 25 23 25 25 25 22 22 22 25 26 26 24 23 20 25 28 25 30 34 35 33 28 26 28 33 34 37 37 30 26 32 33 33 32 27 26 28 27 32 31 30 28 27 28 30 31 33 35 36 37
16 23 19 23 27 28 23 27 24 21 21 28 25 23 22 21 20 24 28 31 35 38 37 38 39 37 34 33 36 33 33 35 33 32 30 29 32 32 32 32 31 20 28 28 27 27 28 30 30 32 33 33 34 38
15 26 21 27 29 28 22 20 20 22 23 23 23 26 25 27 32 32 32 34 39 35 31 30 30 35 34 35 35 36 33 29 23 23 24 26 28 26 31 31 29 29 29 27 20 25 27 30 32 33 35 36 37 41
19 21 22 27 21 20 22 24 24 29 31 28 28 26 27 29 35 40 39 36 32 32 34 35 36 33 28 27 27 27 32 33 29 24 24 26 26 29 31 29 29 29 28 28 27 28 24 31 31 36 38 40 41 41
20 21 21 22 22 26 28 32 34 32 32 31 33 25 25 30 32 37 37 39 39 38 33 31 31 35 31 30 29 27 24 29 32 32 33 31 31 30 28 28 28 27 28 31 33 34 36 39 42 42 41 38 38 38
21 20 18 20 24 28 29 29 29 28 30 27 27 31 28 26 23 30 34 35 31 29 32 36 31 30 34 36 36 35 28 32 30 29 28 26 26 25 26 25 27 30 32 35 37 39 41 42 43 43 43 40 38 37
21 22 24 22 23 22 22 24 28 27 29 30 31 37 35 29 23 29 30 32 32 32 33 34 34 34 33 33 32 32 30 30 26 18 19 19 21 23 27 30 34 34 35 37 39 40 41 42 43 44 42 39 37 35